Flag for Norway Weather past 2 weeks in Sandnes, Norway

54 °F

Passing clouds.

Feels Like: 47 °F
Forecast: 53 / 56 °F
Wind: 25 mph from East

Location: Stavanger / Sola

Current Time: Oct 7, 2015 at 7:20:23 AM

Latest Report: Oct 7, 2015 at 6:50 AM

Visibility: N/A

Pressure: 29.86 "Hg

Humidity: 54%

Dew point: 37 °F

Location of SandnesLocation

Historic Weather in Sandnes — Graph


Sandnes temperature yesterday

Maximum temperature yesterday: 59 °F (at 2:50 AM)
Minimum temperature yesterday: 54 °F (at 11:20 PM)
Average temperature yesterday: 57 °F

Past Weeks' High & Low Weather Summary

High63 °F (Sep 23, 1:50 PM)100% (Sep 23, 1:20 AM)30.72 "Hg (Sep 23, 1:20 AM)
Low41 °F (Oct 5, 5:50 AM)47% (Oct 6, 10:20 PM)29.47 "Hg (Sep 22, 8:50 AM)
Average55 °F79%30.13 "Hg
* Reported Sep 22 6:50 AM — Oct 7 6:20 AM, Sandnes, Weather by CustomWeather, © 2015

Note: Actual official high and low records may vary slightly from our data, if they occured in-between our weather recording intervals... More about our weather records


Sandnes weather history for previous 24 hours

Time TempWeatherWind HumidityBarometerVisibility
6:20 AM
Wed, Oct 7
54 °FPassing clouds.24 mph54%29.89 "HgN/A
5:50 AM54 °FPassing clouds.25 mph54%29.89 "HgN/A
4:50 AM54 °FPassing clouds.23 mph54%29.86 "HgN/A
3:50 AM54 °FPassing clouds.25 mph54%29.89 "HgN/A
2:50 AM54 °FPartly cloudy.18 mph54%29.89 "HgN/A
2:20 AM54 °FPassing clouds.21 mph54%29.89 "HgN/A
1:50 AM54 °FPartly cloudy.21 mph54%29.89 "HgN/A
1:20 AM54 °FPassing clouds.22 mph54%29.89 "HgN/A
12:50 AM54 °FPassing clouds.23 mph54%29.89 "HgN/A
12:20 AM54 °FPassing clouds.24 mph54%29.86 "HgN/A
11:50 PM
Tue, Oct 6
54 °FPassing clouds.17 mph54%29.89 "HgN/A
11:20 PM54 °FPassing clouds.15 mph54%29.89 "HgN/A
10:50 PM55 °FPassing clouds.16 mph47%29.89 "HgN/A
10:20 PM55 °FPassing clouds.18 mph47%29.89 "HgN/A
9:50 PM55 °FPassing clouds.17 mph51%29.86 "HgN/A
9:20 PM55 °FPassing clouds.20 mph51%29.86 "HgN/A
8:50 PM55 °FPassing clouds.18 mph51%29.89 "HgN/A
8:20 PM55 °FPassing clouds.20 mph51%29.86 "HgN/A
7:50 PM55 °FScattered clouds.21 mph51%29.89 "HgN/A
7:20 PM55 °FScattered clouds.22 mph51%29.89 "HgN/A
6:50 PM55 °FScattered clouds.17 mph51%29.89 "HgN/A
6:20 PM55 °FScattered clouds.20 mph51%29.86 "HgN/A
5:50 PM55 °FPartly sunny.17 mph51%29.86 "HgN/A
5:20 PM57 °FPartly sunny.21 mph51%29.86 "HgN/A
4:50 PM57 °FSunny.17 mph55%29.86 "Hg10 mi
4:20 PM59 °FPartly sunny.18 mph48%29.89 "HgN/A
3:50 PM57 °FPartly sunny.20 mph51%29.86 "HgN/A
3:20 PM57 °FPartly sunny.16 mph51%29.89 "HgN/A
2:50 PM57 °FPartly sunny.21 mph51%29.89 "HgN/A
2:20 PM57 °FPartly sunny.16 mph51%29.89 "HgN/A
1:50 PM57 °FPartly sunny.17 mph51%29.89 "HgN/A
1:20 PM57 °FPartly sunny.17 mph55%29.89 "HgN/A
12:50 PM59 °FPartly sunny.17 mph51%29.89 "HgN/A
12:20 PM59 °FPartly sunny.22 mph51%29.89 "HgN/A
11:50 AM59 °FPartly sunny.26 mph55%29.89 "HgN/A
11:20 AM59 °FPartly sunny.25 mph55%29.89 "HgN/A
10:50 AM59 °FBroken clouds.22 mph55%29.89 "HgN/A
10:20 AM59 °FBroken clouds.13 mph59%29.86 "HgN/A
9:50 AM59 °FScattered clouds.17 mph55%29.89 "HgN/A
9:20 AM57 °FScattered clouds.18 mph59%29.89 "HgN/A
8:50 AM59 °FPassing clouds.21 mph55%29.89 "HgN/A
8:20 AM59 °FPassing clouds.18 mph55%29.89 "HgN/A
7:50 AM59 °FPartly cloudy.15 mph55%29.89 "HgN/A
7:20 AM59 °FPartly cloudy.16 mph59%29.89 "HgN/A
Weather by CustomWeather, © 2015

See weather overviewHow to use our weather pages